Location: Ripley
(48.3812°N, 115.4473°W)
Time: 08:25:32
(UTC+00:00)

EO-88 - Pass Details

Date: 04 July 2022
Orbit: 454 x 462 km, 97.3° (Epoch: 07 August)

Event Time Altitude Azimuth Distance (km) Brightness Sun altitude
Exits shadow 04:40:22 - 148° (SSE) 1,660 ? -7.5°
Reaches altitude 10° 04:40:28 10° 148° (SSE) 1,623 ? -7.5°
Maximum altitude 04:43:50 49° 73° (ENE) 613 ? -7.9°
Drops below altitude 10° 04:47:14 10° 358° (N) 1,633 ? -8.3°
Sets 04:49:19 0° 353° (N) 2,512 ? -8.5°
